Location: Caltech
(34.1382°N, 118.1253°W)
Time: 05:22:28
(UTC-07:00)

ARGOS - Visible Passes

Search period start: 05 May 2016 00:00
Search period end: 15 May 2016 00:00
Orbit: 821 x 834 km, 98.7° (Epoch: 04 May)

Date Brightness Start Highest point End Pass type
(mag) Time Alt. Az. Time Alt. Az. Time Alt. Az.
05 May 3.1 22:22:59 78° NNE 22:22:59 78° NNE 22:28:03 10° NNW visible
06 May 3.3 22:04:08 56° ENE 22:04:09 56° ENE 22:09:26 10° N visible
06 May 5.5 23:45:39 14° W 23:45:39 14° W 23:47:41 10° WNW visible
07 May 3.8 21:45:17 36° E 21:45:43 37° ENE 21:50:39 10° N visible
07 May 5.0 23:26:48 22° W 23:26:48 22° W 23:30:13 10° NW visible
08 May 4.3 21:26:27 24° E 21:27:20 25° ENE 21:31:40 10° NNE visible
08 May 4.4 23:07:58 34° W 23:07:58 34° W 23:12:16 10° NNW visible
09 May 4.8 21:07:37 16° E 21:09:00 17° ENE 21:12:23 10° NNE visible
09 May 3.7 22:49:08 52° W 22:49:08 52° W 22:54:02 10° NNW visible
10 May 5.2 20:49:15 10° ENE 20:50:44 11° ENE 20:52:14 10° NE visible
10 May 3.1 22:30:18 81° W 22:30:18 81° W 22:35:38 10° NNW visible
11 May 3.1 22:11:27 66° E 22:11:42 67° ENE 22:17:04 10° N visible
11 May 5.6 23:52:58 12° W 23:52:58 12° W 23:54:30 10° WNW visible
12 May 3.6 21:52:37 42° E 21:53:15 44° ENE 21:58:22 10° N visible
12 May 5.2 23:34:08 19° W 23:34:08 19° W 23:37:27 10° NW visible
13 May 4.1 21:33:47 27° E 21:34:51 30° ENE 21:39:29 10° N visible
13 May 4.6 23:15:18 29° W 23:15:18 29° W 23:19:39 10° NW visible
14 May 4.6 21:14:57 18° E 21:16:30 20° ENE 21:20:21 10° NNE visible
14 May 3.9 22:56:28 45° W 22:56:28 45° W 23:01:32 10° NNW visible
